カタログに戻る

SL-12 R/B(2)

運用中GEO
NORAD 22272·ROCKET BODY·🇷🇺 Russia

打ち上げ Dec 17, 1992 から Baikonur Cosmodrome

Loading…

TLE

最新Source: Space-Track

元期: Sep 14, 2026, 12:25 UTC

1 22272U 92088D   26257.51788566  .00000090  00000-0  00000-0 0  9999
2 22272  13.7092 347.7900 0009264 175.1029 219.7871  1.00065163 48183

AllMySatでSL-12 R/B(2)をリアルタイム追跡

Download on the App Store